Location: Woodstock
(35.2731°N, 89.9823°W)
Time: 18:29:36
(UTC+00:00)

Vanguard 3 - Pass Details

Date: 30 May 2025
Orbit: 508 x 3215 km, 33.3° (Epoch: 14 June)

Event Time Altitude Azimuth Distance (km) Brightness Sun altitude
Rises 04:09:22 0° 215° (SW) 7,143 11.7 -27.4°
Reaches altitude 10° 04:15:01 10° 208° (SSW) 6,008 11.2 -28.0°
Enters shadow 04:20:03 20° 198° (SSW) 5,016 10.7 -28.4°
Maximum altitude 04:30:21 36° 151° (SSE) 3,514 - -29.3°
Exits shadow 04:38:18 19° 101° (E) 3,771 10.2 -29.9°
Drops below altitude 10° 04:40:58 10° 91° (E) 4,199 10.6 -30.1°
Sets 04:44:04 0° 82° (E) 4,848 11.0 -30.3°
